AEE6218 LGAV-LGRP

Flight info

Callsign AEE6218
Flight time 0h 41m
Altitude 25000
Route KEA UL995 CODIC
Aircraft A320/M-SDE3FGHIRWY/LB1

Departure

Time 2026-05-06 14:43
Airport Athens Eleftherios Venizelos International Airport (LGAV)

Arrival

Time 2026-05-06 15:25
Airport Rhodes International Airport "Diagoras" (LGRP)
Time Latitude Longitude Altitude Speed Heading
2026-05-06 14:23 37.94375 23.95524 303 ft 0 kts 218°
2026-05-06 14:33 37.94383 23.95532 302 ft 4 kts 218°
2026-05-06 14:34 37.94400 23.95548 304 ft 4 kts 207°
2026-05-06 14:34 37.94423 23.95554 301 ft 4 kts 157°
2026-05-06 14:34 37.94440 23.95537 301 ft 1 kts 126°
2026-05-06 14:34 37.94441 23.95537 301 ft 0 kts 126°
2026-05-06 14:36 37.94440 23.95537 301 ft 0 kts 126°
2026-05-06 14:37 37.94434 23.95549 301 ft 3 kts 126°
2026-05-06 14:37 37.94418 23.95577 303 ft 5 kts 126°
2026-05-06 14:37 37.94391 23.95621 300 ft 8 kts 127°
2026-05-06 14:37 37.94355 23.95683 302 ft 10 kts 127°
2026-05-06 14:38 37.94329 23.95771 300 ft 12 kts 69°
2026-05-06 14:38 37.94361 23.95875 299 ft 14 kts 91°
2026-05-06 14:38 37.94399 23.95988 300 ft 16 kts 39°
2026-05-06 14:38 37.94493 23.96081 300 ft 18 kts 36°
2026-05-06 14:39 37.94597 23.96180 301 ft 19 kts 37°
2026-05-06 14:39 37.94710 23.96287 299 ft 21 kts 37°
2026-05-06 14:39 37.94831 23.96402 300 ft 22 kts 37°
2026-05-06 14:39 37.94958 23.96522 302 ft 24 kts 37°
2026-05-06 14:40 37.95094 23.96650 302 ft 25 kts 37°
2026-05-06 14:40 37.95240 23.96789 305 ft 27 kts 37°
2026-05-06 14:40 37.95281 23.96924 305 ft 15 kts 123°
2026-05-06 14:40 37.95272 23.96940 306 ft 0 kts 126°
2026-05-06 14:42 37.95264 23.96955 308 ft 5 kts 126°
2026-05-06 14:42 37.95230 23.97006 311 ft 10 kts 153°
2026-05-06 14:42 37.95117 23.96951 310 ft 34 kts 223°
2026-05-06 14:43 37.94757 23.96610 301 ft 96 kts 217°
2026-05-06 14:43 37.94076 23.95963 284 ft 145 kts 217°
2026-05-06 14:43 37.93233 23.95196 818 ft 146 kts 211°
2026-05-06 14:43 37.92313 23.94594 1403 ft 151 kts 205°
2026-05-06 14:44 37.91382 23.93975 2032 ft 152 kts 207°
2026-05-06 14:44 37.90398 23.93299 2369 ft 171 kts 208°
2026-05-06 14:44 37.89284 23.92528 2656 ft 194 kts 209°
2026-05-06 14:45 37.86552 23.91097 3237 ft 240 kts 181°
2026-05-06 14:45 37.84892 23.91723 3717 ft 264 kts 144°
2026-05-06 14:45 37.83689 23.93528 4482 ft 274 kts 122°
2026-05-06 14:45 37.82730 23.95649 5378 ft 279 kts 119°
2026-05-06 14:46 37.81825 23.97842 6285 ft 283 kts 117°
2026-05-06 14:46 37.80925 24.00076 7144 ft 287 kts 117°
2026-05-06 14:46 37.80010 24.02336 8001 ft 290 kts 117°
2026-05-06 14:46 37.79073 24.04612 8849 ft 293 kts 117°
2026-05-06 14:47 37.78125 24.06877 9685 ft 297 kts 117°
2026-05-06 14:47 37.77141 24.09205 10343 ft 307 kts 117°
2026-05-06 14:47 37.76095 24.11674 10562 ft 330 kts 117°
2026-05-06 14:47 37.74968 24.14319 10730 ft 354 kts 117°
2026-05-06 14:48 37.73771 24.17111 11102 ft 367 kts 117°
2026-05-06 14:48 37.72542 24.19974 11696 ft 373 kts 117°
2026-05-06 14:48 37.71293 24.22881 12321 ft 378 kts 117°
2026-05-06 14:48 37.70034 24.25816 12949 ft 382 kts 117°
2026-05-06 14:49 37.68759 24.28792 13583 ft 387 kts 117°
2026-05-06 14:49 37.67485 24.31768 14153 ft 392 kts 117°
2026-05-06 14:49 37.66179 24.34812 14693 ft 396 kts 117°
2026-05-06 14:49 37.64858 24.37889 15238 ft 401 kts 117°
2026-05-06 14:50 37.63524 24.40997 15744 ft 405 kts 117°
2026-05-06 14:50 37.62171 24.44146 16250 ft 409 kts 117°
2026-05-06 14:50 37.60800 24.47323 16762 ft 414 kts 117°
2026-05-06 14:50 37.59412 24.50532 17290 ft 418 kts 117°
2026-05-06 14:51 37.58015 24.53769 17816 ft 423 kts 117°
2026-05-06 14:51 37.56596 24.57049 18342 ft 427 kts 117°
2026-05-06 14:51 37.55186 24.60304 18806 ft 431 kts 117°
2026-05-06 14:51 37.53741 24.63633 19284 ft 435 kts 117°
2026-05-06 14:52 37.52281 24.66998 19778 ft 439 kts 117°
2026-05-06 14:52 37.50810 24.70388 20254 ft 442 kts 117°
2026-05-06 14:52 37.49326 24.73800 20724 ft 446 kts 116°
2026-05-06 14:52 37.47832 24.77234 21177 ft 449 kts 116°
2026-05-06 14:53 37.46324 24.80698 21618 ft 453 kts 116°
2026-05-06 14:53 37.44800 24.84192 22049 ft 456 kts 116°
2026-05-06 14:53 37.43262 24.87713 22470 ft 459 kts 116°
2026-05-06 14:53 37.41737 24.91200 22885 ft 462 kts 116°
2026-05-06 14:54 37.40178 24.94766 23301 ft 466 kts 116°
2026-05-06 14:54 37.38606 24.98360 23707 ft 469 kts 116°
2026-05-06 14:54 37.37037 25.01978 24052 ft 471 kts 114°
2026-05-06 14:54 37.35763 25.05770 24406 ft 470 kts 105°
2026-05-06 14:55 37.34739 25.09628 24738 ft 472 kts 105°
2026-05-06 14:55 37.33695 25.13546 25014 ft 474 kts 105°
2026-05-06 14:55 37.32641 25.17486 25090 ft 479 kts 105°
2026-05-06 14:55 37.31565 25.21503 25097 ft 486 kts 105°
2026-05-06 14:56 37.30482 25.25539 25097 ft 488 kts 105°
2026-05-06 14:56 37.29390 25.29585 25097 ft 489 kts 105°
2026-05-06 14:56 37.28294 25.33643 25097 ft 490 kts 106°
2026-05-06 14:56 37.27181 25.37703 25085 ft 490 kts 107°
2026-05-06 14:57 37.25986 25.41713 25104 ft 490 kts 109°
2026-05-06 14:57 37.24712 25.45687 25104 ft 491 kts 110°
2026-05-06 14:57 37.23408 25.49603 25102 ft 491 kts 110°
2026-05-06 14:57 37.22071 25.53560 25103 ft 491 kts 110°
2026-05-06 14:58 37.20729 25.57502 25099 ft 491 kts 110°
2026-05-06 14:58 37.19388 25.61445 25100 ft 491 kts 110°
2026-05-06 14:58 37.18058 25.65387 25111 ft 491 kts 110°
2026-05-06 14:58 37.16736 25.69333 25104 ft 491 kts 110°
2026-05-06 14:59 37.15417 25.73290 25098 ft 491 kts 110°
2026-05-06 14:59 37.14102 25.77236 25092 ft 491 kts 110°
2026-05-06 14:59 37.12783 25.81186 25088 ft 491 kts 110°
2026-05-06 14:59 37.11476 25.85087 25085 ft 491 kts 110°
2026-05-06 15:00 37.10148 25.89042 25087 ft 491 kts 110°
2026-05-06 15:00 37.08819 25.92994 25080 ft 491 kts 110°
2026-05-06 15:00 37.07491 25.96932 25085 ft 491 kts 110°
2026-05-06 15:00 37.06160 26.00873 25085 ft 492 kts 110°
2026-05-06 15:01 37.04842 26.04773 25082 ft 492 kts 110°
2026-05-06 15:01 37.03503 26.08732 25080 ft 492 kts 110°
2026-05-06 15:01 37.02167 26.12679 25068 ft 492 kts 110°
2026-05-06 15:01 37.00830 26.16630 25074 ft 492 kts 111°
2026-05-06 15:02 36.99488 26.20570 25077 ft 492 kts 111°
2026-05-06 15:02 36.98144 26.24505 25077 ft 492 kts 111°
2026-05-06 15:02 36.96806 26.28436 25086 ft 492 kts 110°
2026-05-06 15:02 36.95471 26.32377 25079 ft 492 kts 110°
2026-05-06 15:03 36.94140 26.36320 25077 ft 492 kts 110°
2026-05-06 15:03 36.92809 26.40265 25074 ft 493 kts 110°
2026-05-06 15:03 36.91474 26.44212 25073 ft 493 kts 110°
2026-05-06 15:03 36.90135 26.48156 25075 ft 493 kts 110°
2026-05-06 15:04 36.88792 26.52096 25072 ft 493 kts 111°
2026-05-06 15:04 36.87442 26.56040 25074 ft 493 kts 111°
2026-05-06 15:04 36.86090 26.59977 25077 ft 494 kts 110°
2026-05-06 15:04 36.84748 26.63872 25072 ft 494 kts 111°
2026-05-06 15:05 36.83383 26.67822 25077 ft 494 kts 111°
2026-05-06 15:05 36.82021 26.71768 25079 ft 494 kts 111°
2026-05-06 15:05 36.80661 26.75719 25080 ft 494 kts 110°
2026-05-06 15:05 36.79302 26.79673 25083 ft 494 kts 110°
2026-05-06 15:06 36.77960 26.83576 25087 ft 494 kts 110°
2026-05-06 15:06 36.76605 26.87519 25098 ft 494 kts 110°
2026-05-06 15:06 36.75247 26.91454 25095 ft 494 kts 110°
2026-05-06 15:06 36.73884 26.95396 25094 ft 495 kts 111°
2026-05-06 15:07 36.72515 26.99336 25095 ft 495 kts 111°
2026-05-06 15:07 36.71137 27.03279 25095 ft 495 kts 111°
2026-05-06 15:07 36.69754 27.07231 25095 ft 495 kts 111°
2026-05-06 15:07 36.68395 27.11118 25094 ft 495 kts 111°
2026-05-06 15:08 36.67018 27.15056 25096 ft 496 kts 111°
2026-05-06 15:08 36.65639 27.19003 25087 ft 496 kts 111°
2026-05-06 15:08 36.64263 27.22946 25085 ft 496 kts 111°
2026-05-06 15:08 36.62884 27.26899 25077 ft 496 kts 111°
2026-05-06 15:09 36.61969 27.29515 25074 ft 496 kts 111°
2026-05-06 15:09 36.60593 27.33448 25029 ft 496 kts 111°
2026-05-06 15:09 36.59211 27.37388 24783 ft 497 kts 111°
2026-05-06 15:09 36.57823 27.41328 24547 ft 497 kts 111°
2026-05-06 15:10 36.55979 27.46541 24241 ft 497 kts 111°
2026-05-06 15:10 36.55037 27.49200 23805 ft 495 kts 111°
2026-05-06 15:10 36.53666 27.53070 22805 ft 494 kts 111°
2026-05-06 15:10 36.52290 27.56956 21998 ft 489 kts 111°
2026-05-06 15:11 36.50926 27.60804 21167 ft 484 kts 111°
2026-05-06 15:11 36.49571 27.64622 20328 ft 480 kts 112°
2026-05-06 15:11 36.48228 27.68405 19520 ft 476 kts 112°
2026-05-06 15:11 36.46965 27.72177 18745 ft 469 kts 107°
2026-05-06 15:12 36.46151 27.76072 17972 ft 460 kts 97°
2026-05-06 15:12 36.45639 27.79956 17275 ft 451 kts 96°
2026-05-06 15:12 36.45131 27.83773 16614 ft 443 kts 97°
2026-05-06 15:12 36.44621 27.87479 15979 ft 437 kts 99°
2026-05-06 15:13 36.43758 27.91090 15344 ft 434 kts 110°
2026-05-06 15:13 36.42398 27.94445 14688 ft 433 kts 120°
2026-05-06 15:13 36.40658 27.97435 14035 ft 430 kts 126°
2026-05-06 15:13 36.38836 28.00369 13327 ft 426 kts 126°
2026-05-06 15:14 36.37033 28.03272 12634 ft 421 kts 126°
2026-05-06 15:14 36.35254 28.06139 11943 ft 417 kts 126°
2026-05-06 15:14 36.33499 28.08979 11236 ft 413 kts 126°
2026-05-06 15:14 36.31806 28.11817 10897 ft 399 kts 124°
2026-05-06 15:15 36.30229 28.14538 10801 ft 379 kts 123°
2026-05-06 15:15 36.28732 28.17153 10678 ft 363 kts 123°
2026-05-06 15:15 36.27323 28.19624 10557 ft 349 kts 123°
2026-05-06 15:15 36.25947 28.22036 10436 ft 336 kts 123°
2026-05-06 15:16 36.24633 28.24380 10320 ft 324 kts 118°
2026-05-06 15:16 36.23877 28.26915 10196 ft 307 kts 95°
2026-05-06 15:16 36.23927 28.29487 9872 ft 293 kts 73°
2026-05-06 15:16 36.24706 28.31761 9220 ft 283 kts 52°
2026-05-06 15:17 36.26053 28.33482 8606 ft 275 kts 32°
2026-05-06 15:17 36.27752 28.34500 8013 ft 269 kts 14°
2026-05-06 15:17 36.29563 28.35043 7394 ft 267 kts 13°
2026-05-06 15:17 36.31357 28.35570 6869 ft 262 kts 13°
2026-05-06 15:18 36.33100 28.36085 6428 ft 258 kts 13°
2026-05-06 15:18 36.34846 28.36602 6010 ft 257 kts 13°
2026-05-06 15:18 36.36581 28.37118 5618 ft 256 kts 13°
2026-05-06 15:18 36.38325 28.37636 5205 ft 259 kts 13°
2026-05-06 15:19 36.40092 28.38158 4824 ft 261 kts 13°
2026-05-06 15:19 36.41864 28.38681 4412 ft 263 kts 11°
2026-05-06 15:19 36.43658 28.38781 4116 ft 258 kts 350°
2026-05-06 15:19 36.45287 28.38016 4068 ft 246 kts 328°
2026-05-06 15:20 36.46508 28.36624 4037 ft 234 kts 308°
2026-05-06 15:20 36.47234 28.34844 3908 ft 230 kts 289°
2026-05-06 15:20 36.47419 28.32870 3693 ft 230 kts 269°
2026-05-06 15:20 36.47049 28.30950 3424 ft 232 kts 255°
2026-05-06 15:21 36.46497 28.29065 3126 ft 231 kts 254°
2026-05-06 15:21 36.45950 28.27190 2818 ft 229 kts 255°
2026-05-06 15:21 36.45414 28.25346 2508 ft 223 kts 253°
2026-05-06 15:21 36.44898 28.23577 2241 ft 211 kts 254°
2026-05-06 15:22 36.44418 28.21932 1969 ft 194 kts 254°
2026-05-06 15:22 36.43982 28.20439 1730 ft 174 kts 255°
2026-05-06 15:22 36.43590 28.19093 1493 ft 157 kts 255°
2026-05-06 15:22 36.43243 28.17905 1303 ft 138 kts 256°
2026-05-06 15:23 36.42926 28.16814 1128 ft 132 kts 254°
2026-05-06 15:23 36.42620 28.15759 954 ft 129 kts 255°
2026-05-06 15:23 36.42310 28.14700 773 ft 129 kts 252°
2026-05-06 15:23 36.42017 28.13673 625 ft 128 kts 252°
2026-05-06 15:24 36.41719 28.12638 518 ft 127 kts 250°
2026-05-06 15:24 36.41402 28.11596 312 ft 129 kts 250°
2026-05-06 15:24 36.41103 28.10554 118 ft 127 kts 249°
2026-05-06 15:24 36.40812 28.09556 31 ft 111 kts 250°
2026-05-06 15:25 36.40604 28.08847 28 ft 63 kts 250°
2026-05-06 15:25 36.40501 28.08501 27 ft 35 kts 249°
2026-05-06 15:25 36.40414 28.08217 27 ft 35 kts 250°
2026-05-06 15:25 36.40300 28.07972 28 ft 32 kts 226°
2026-05-06 15:26 36.40183 28.07861 28 ft 16 kts 198°
2026-05-06 15:26 36.40151 28.07919 28 ft 9 kts 79°
2026-05-06 15:26 36.40174 28.08004 28 ft 11 kts 71°
2026-05-06 15:26 36.40203 28.08105 28 ft 13 kts 70°
2026-05-06 15:27 36.40237 28.08223 28 ft 15 kts 70°
2026-05-06 15:27 36.40277 28.08356 28 ft 18 kts 69°
2026-05-06 15:27 36.40322 28.08504 28 ft 18 kts 71°
2026-05-06 15:27 36.40368 28.08658 28 ft 20 kts 69°
2026-05-06 15:28 36.40402 28.08832 28 ft 22 kts 91°
2026-05-06 15:28 36.40407 28.09027 28 ft 24 kts 72°
2026-05-06 15:28 36.40450 28.09187 28 ft 15 kts 88°
2026-05-06 15:28 36.40398 28.09229 28 ft 4 kts 162°
2026-05-06 15:29 36.40391 28.09232 28 ft 1 kts 162°
2026-05-06 15:29 36.40389 28.09233 28 ft 0 kts 162°